Location: Marcé
(47.5801°N, 0.3280°W)
Time: 14:54:13
(UTC+01:00)

Tiros 1 despin weight - Pass Details

Date: 12 December 2021
Orbit: 592 x 641 km, 48.2° (Epoch: 19 January)

Event Time Altitude Azimuth Distance (km) Brightness Sun altitude
Rises 15:07:05 0° 283° (WNW) 2,842 ? 13.3°
Reaches altitude 10° 15:09:23 10° 281° (WNW) 1,933 ? 13.1°
Maximum altitude 15:13:48 73° 198° (SSW) 622 ? 12.7°
Drops below altitude 10° 15:18:11 10° 114° (ESE) 1,918 ? 12.3°
Sets 15:20:27 0° 112° (ESE) 2,818 ? 12.1°
